Time,TemperatureF,DewpointF,PressureIn,WindDirection,WindDirectionDegrees,WindSpeedMPH,WindSpeedGustMPH,Humidity,HourlyPrecipIn,Conditions,Clouds,dailyrainin,SoftwareType,DateUTC
2013-07-15 00:01:00,74.0,72.0,30.21,West,270,0.0,0.0,92,0.00,,,0.00,,2013-07-15 04:01:00,
2013-07-15 00:11:00,74.0,72.0,30.21,West,270,0.0,0.0,92,0.00,,,0.00,,2013-07-15 04:11:00,
2013-07-15 00:22:00,74.0,72.0,30.21,West,270,0.0,0.0,92,0.00,,,0.00,,2013-07-15 04:22:00,
2013-07-15 00:33:00,74.0,72.0,30.18,West,270,0.0,0.0,92,0.00,,,0.00,,2013-07-15 04:33:00,
2013-07-15 00:42:00,74.0,72.0,30.18,West,270,0.0,0.0,92,0.00,,,0.00,,2013-07-15 04:42:00,
2013-07-15 00:54:00,74.0,72.0,30.18,West,270,0.0,0.0,93,0.00,,,0.00,,2013-07-15 04:54:00,
2013-07-15 01:02:00,74.0,72.0,30.18,West,270,0.0,0.0,93,0.00,,,0.00,,2013-07-15 05:02:00,
2013-07-15 01:12:00,74.0,72.0,30.18,West,270,0.0,0.0,93,0.00,,,5.19,,2013-07-15 05:12:00,
2013-07-15 01:22:00,74.0,72.0,30.18,West,270,0.0,0.0,93,0.00,,,5.19,,2013-07-15 05:22:00,
2013-07-15 01:32:00,74.0,72.0,30.18,West,270,0.0,0.0,93,0.00,,,0.00,,2013-07-15 05:32:00,
2013-07-15 01:43:00,74.0,72.0,30.18,West,270,0.0,0.0,93,0.00,,,0.00,,2013-07-15 05:43:00,
2013-07-15 01:53:00,74.0,72.0,30.18,West,270,0.0,0.0,93,0.00,,,0.00,,2013-07-15 05:53:00,
2013-07-15 02:02:00,74.0,72.0,30.18,West,270,0.0,0.0,93,0.00,,,0.00,,2013-07-15 06:02:00,
2013-07-15 02:12:00,74.0,72.0,30.18,West,270,0.0,0.0,93,0.00,,,0.00,,2013-07-15 06:12:00,
2013-07-15 02:22:00,74.0,72.0,30.18,West,270,0.0,0.0,93,0.00,,,0.00,,2013-07-15 06:22:00,
2013-07-15 02:32:00,74.0,72.0,30.18,West,270,0.0,0.0,93,0.00,,,0.00,,2013-07-15 06:32:00,
2013-07-15 02:42:00,74.0,72.0,30.18,West,270,0.0,0.0,93,0.00,,,0.00,,2013-07-15 06:42:00,
2013-07-15 02:53:00,74.0,72.0,30.18,West,270,0.0,0.0,93,0.00,,,0.00,,2013-07-15 06:53:00,
2013-07-15 03:01:00,74.0,72.0,30.18,West,270,0.0,0.0,93,0.00,,,0.00,,2013-07-15 07:01:00,
2013-07-15 03:11:00,74.0,72.0,30.18,West,270,0.0,0.0,93,0.00,,,0.00,,2013-07-15 07:11:00,
2013-07-15 03:22:00,74.0,72.0,30.18,West,270,0.0,0.0,93,0.00,,,0.00,,2013-07-15 07:22:00,
2013-07-15 03:33:00,74.0,72.0,30.15,West,270,0.0,0.0,93,0.00,,,0.00,,2013-07-15 07:33:00,
2013-07-15 03:44:00,74.0,72.0,30.15,West,270,0.0,0.0,93,0.00,,,0.00,,2013-07-15 07:44:00,
2013-07-15 03:53:00,74.0,72.0,30.18,West,270,0.0,0.0,93,0.00,,,0.00,,2013-07-15 07:53:00,
2013-07-15 04:02:00,74.0,72.0,30.18,West,270,0.0,0.0,93,0.00,,,0.00,,2013-07-15 08:02:00,
2013-07-15 04:22:00,74.0,72.0,30.15,West,270,0.0,0.0,93,0.00,,,0.00,,2013-07-15 08:22:00,
2013-07-15 04:32:00,73.0,71.0,30.18,West,270,0.0,0.0,93,0.00,,,0.00,,2013-07-15 08:32:00,
2013-07-15 04:43:00,73.0,71.0,30.18,West,270,0.0,0.0,93,0.00,,,0.00,,2013-07-15 08:43:00,
2013-07-15 04:53:00,73.0,71.0,30.18,West,270,0.0,0.0,93,0.00,,,0.00,,2013-07-15 08:53:00,
2013-07-15 05:02:00,73.0,71.0,30.18,West,270,0.0,0.0,93,0.00,,,0.00,,2013-07-15 09:02:00,
2013-07-15 05:12:00,73.0,71.0,30.18,West,270,0.0,0.0,93,0.00,,,0.00,,2013-07-15 09:12:00,
2013-07-15 05:22:00,73.0,71.0,30.18,West,270,0.0,0.0,93,0.00,,,0.00,,2013-07-15 09:22:00,
2013-07-15 05:32:00,73.0,71.0,30.18,West,270,0.0,0.0,93,0.00,,,0.00,,2013-07-15 09:32:00,
2013-07-15 05:43:00,74.0,72.0,30.15,West,270,0.0,0.0,93,0.00,,,0.00,,2013-07-15 09:43:00,
2013-07-15 05:52:00,74.0,72.0,30.18,West,270,0.0,0.0,93,0.00,,,0.00,,2013-07-15 09:52:00,
2013-07-15 06:02:00,74.0,72.0,30.18,West,270,0.0,0.0,93,0.00,,,0.00,,2013-07-15 10:02:00,
2013-07-15 06:11:00,74.0,72.0,30.18,West,270,0.0,0.0,93,0.00,,,0.00,,2013-07-15 10:11:00,
2013-07-15 06:22:00,74.0,72.0,30.18,West,270,0.0,0.0,93,0.00,,,0.00,,2013-07-15 10:22:00,
2013-07-15 06:32:00,74.0,72.0,30.18,West,270,0.0,0.0,93,0.00,,,0.00,,2013-07-15 10:32:00,
2013-07-15 06:43:00,74.0,72.0,30.18,West,270,0.0,0.0,93,0.00,,,0.00,,2013-07-15 10:43:00,
2013-07-15 06:53:00,74.0,72.0,30.18,West,270,0.0,0.0,93,0.00,,,0.00,,2013-07-15 10:53:00,
2013-07-15 07:02:00,74.0,72.0,30.18,West,270,0.0,0.0,94,0.00,,,0.00,,2013-07-15 11:02:00,
2013-07-15 07:11:00,75.0,73.0,30.18,West,270,0.0,0.0,94,0.00,,,0.00,,2013-07-15 11:11:00,
2013-07-15 07:22:00,75.0,73.0,30.18,West,270,0.0,0.0,94,0.00,,,0.00,,2013-07-15 11:22:00,
2013-07-15 07:32:00,75.0,73.0,30.18,West,270,0.0,0.0,94,0.00,,,0.00,,2013-07-15 11:32:00,
2013-07-15 07:42:00,76.0,74.0,30.18,West,270,0.0,0.0,94,0.00,,,0.00,,2013-07-15 11:42:00,
2013-07-15 07:52:00,77.0,75.0,30.18,West,270,0.0,0.0,94,0.00,,,0.00,,2013-07-15 11:52:00,
2013-07-15 08:01:00,77.0,75.0,30.18,West,270,0.0,0.0,94,0.00,,,0.00,,2013-07-15 12:01:00,
2013-07-15 08:11:00,78.0,76.0,30.18,West,270,0.0,0.0,94,0.00,,,0.00,,2013-07-15 12:11:00,
2013-07-15 08:22:00,78.0,76.0,30.18,West,270,0.0,0.0,93,0.00,,,0.00,,2013-07-15 12:22:00,
2013-07-15 08:32:00,79.0,77.0,30.18,NW,315,2.0,2.0,93,0.00,,,0.00,,2013-07-15 12:32:00,
2013-07-15 08:42:00,79.0,76.0,30.18,NW,315,0.0,0.0,92,0.00,,,0.00,,2013-07-15 12:42:00,
2013-07-15 08:52:00,79.0,76.0,30.18,NW,315,0.0,0.0,91,0.00,,,0.00,,2013-07-15 12:52:00,
2013-07-15 09:02:00,80.0,77.0,30.18,WNW,292,0.0,0.0,90,0.00,,,0.00,,2013-07-15 13:02:00,
2013-07-15 09:11:00,80.0,76.0,30.18,WNW,292,0.0,0.0,89,0.00,,,0.00,,2013-07-15 13:11:00,
2013-07-15 09:22:00,80.0,76.0,30.18,WNW,292,0.0,0.0,89,0.00,,,0.00,,2013-07-15 13:22:00,
2013-07-15 09:33:00,80.0,76.0,30.15,WNW,292,0.0,0.0,88,0.00,,,0.00,,2013-07-15 13:33:00,
2013-07-15 09:43:00,81.0,76.0,30.15,NW,315,0.0,0.0,85,0.00,,,0.00,,2013-07-15 13:43:00,
2013-07-15 10:02:00,82.0,76.0,30.15,NW,315,0.0,0.0,83,0.00,,,0.00,,2013-07-15 14:02:00,
2013-07-15 10:33:00,83.0,77.0,30.15,West,270,0.0,0.0,82,0.00,,,0.00,,2013-07-15 14:33:00,
2013-07-15 10:58:00,83.0,77.0,30.15,West,270,0.0,0.0,82,0.00,,,0.00,,2013-07-15 14:58:00,
2013-07-15 11:47:00,84.0,74.0,30.15,West,270,0.0,0.0,73,0.00,,,0.00,,2013-07-15 15:47:00,
2013-07-15 11:53:00,84.0,74.0,30.15,West,270,0.0,0.0,73,0.00,,,0.00,,2013-07-15 15:53:00,
2013-07-15 12:08:00,86.0,76.0,30.15,WSW,248,0.0,3.0,73,0.00,,,0.00,,2013-07-15 16:08:00,
2013-07-15 12:24:00,86.0,77.0,30.15,West,270,0.0,5.0,74,0.00,,,0.00,,2013-07-15 16:24:00,
2013-07-15 12:33:00,86.0,77.0,30.15,West,270,0.0,0.0,74,0.00,,,0.00,,2013-07-15 16:33:00,
2013-07-15 12:47:00,87.0,77.0,30.15,SW,225,0.0,0.0,72,0.00,,,0.00,,2013-07-15 16:47:00,
2013-07-15 12:52:00,86.0,76.0,30.15,SSE,158,0.0,0.0,73,0.00,,,0.00,,2013-07-15 16:52:00,
2013-07-15 12:56:00,86.0,77.0,30.15,SSE,158,0.0,0.0,75,0.00,,,0.00,,2013-07-15 16:56:00,
2013-07-15 13:13:00,86.0,76.0,30.15,SSE,158,0.0,0.0,73,0.00,,,0.00,,2013-07-15 17:13:00,
2013-07-15 13:23:00,86.0,77.0,30.15,SSE,158,0.0,0.0,75,0.00,,,0.00,,2013-07-15 17:23:00,
2013-07-15 13:36:00,86.0,77.0,30.15,SSE,158,0.0,0.0,75,0.00,,,0.00,,2013-07-15 17:36:00,
2013-07-15 13:50:00,86.0,77.0,30.15,SSE,158,0.0,0.0,75,0.00,,,0.00,,2013-07-15 17:50:00,
2013-07-15 14:08:00,88.0,78.0,30.12,SSE,158,1.0,1.0,73,0.00,,,0.00,,2013-07-15 18:08:00,
2013-07-15 14:39:00,89.0,78.0,30.12,SSE,158,0.0,0.0,71,0.00,,,0.00,,2013-07-15 18:39:00,
2013-07-15 14:45:00,89.0,78.0,30.12,SE,135,0.0,0.0,70,0.00,,,0.00,,2013-07-15 18:45:00,
2013-07-15 14:56:00,90.0,78.0,30.12,SSE,158,0.0,2.0,68,0.00,,,0.00,,2013-07-15 18:56:00,
2013-07-15 15:05:00,89.0,77.0,30.12,SSE,158,0.0,0.0,69,0.00,,,0.00,,2013-07-15 19:05:00,
2013-07-15 15:12:00,89.0,77.0,30.12,SSE,158,0.0,0.0,69,0.00,,,0.00,,2013-07-15 19:12:00,
2013-07-15 15:37:00,89.0,77.0,30.12,SE,135,0.0,0.0,68,0.00,,,0.00,,2013-07-15 19:37:00,
2013-07-15 15:47:00,89.0,77.0,30.12,SSE,158,0.0,4.0,69,0.00,,,0.00,,2013-07-15 19:47:00,
2013-07-15 15:57:00,89.0,77.0,30.12,SSE,158,0.0,4.0,69,0.00,,,0.00,,2013-07-15 19:57:00,
2013-07-15 18:22:00,89.0,76.0,30.09,SSW,202,0.0,0.0,66,0.00,,,0.00,,2013-07-15 22:22:00,
2013-07-15 18:34:00,88.0,76.0,30.09,SSW,202,0.0,0.0,68,0.00,,,0.00,,2013-07-15 22:34:00,
2013-07-15 18:43:00,87.0,76.0,30.09,SSW,202,0.0,0.0,70,0.00,,,0.00,,2013-07-15 22:43:00,
2013-07-15 18:54:00,86.0,75.0,30.09,SSW,202,0.0,0.0,71,0.00,,,0.00,,2013-07-15 22:54:00,
2013-07-15 19:06:00,86.0,76.0,30.09,SSW,202,0.0,0.0,72,0.00,,,0.00,,2013-07-15 23:06:00,
2013-07-15 19:16:00,84.0,74.0,30.12,South,180,0.0,0.0,72,0.00,,,0.00,,2013-07-15 23:16:00,
2013-07-15 19:40:00,84.0,74.0,30.12,South,180,0.0,0.0,72,0.00,,,0.00,,2013-07-15 23:40:00,
2013-07-15 19:53:00,84.0,74.0,30.12,South,180,0.0,0.0,72,0.00,,,0.00,,2013-07-15 23:53:00,
2013-07-15 20:03:00,84.0,74.0,30.12,South,180,0.0,0.0,72,0.00,,,0.00,,2013-07-16 00:03:00,
2013-07-15 20:34:00,81.0,73.0,30.09,South,180,0.0,0.0,77,0.00,,,0.00,,2013-07-16 00:34:00,
2013-07-15 20:51:00,81.0,73.0,30.09,South,180,0.0,0.0,77,0.00,,,0.00,,2013-07-16 00:51:00,
2013-07-15 21:10:00,80.0,73.0,30.09,South,180,0.0,0.0,79,0.00,,,0.00,,2013-07-16 01:10:00,
2013-07-15 21:37:00,79.0,72.0,30.12,South,180,0.0,0.0,80,0.00,,,0.00,,2013-07-16 01:37:00,
2013-07-15 21:49:00,78.0,71.0,30.12,South,180,0.0,0.0,80,0.00,,,0.00,,2013-07-16 01:49:00,
2013-07-15 21:58:00,78.0,71.0,30.12,South,180,0.0,0.0,80,0.00,,,0.00,,2013-07-16 01:58:00,
2013-07-15 22:06:00,78.0,72.0,30.12,South,180,0.0,0.0,82,0.00,,,0.00,,2013-07-16 02:06:00,
2013-07-15 22:11:00,78.0,72.0,30.12,South,180,0.0,0.0,82,0.00,,,0.00,,2013-07-16 02:11:00,
2013-07-15 22:35:00,77.0,71.0,30.12,South,180,0.0,0.0,83,0.00,,,0.00,,2013-07-16 02:35:00,
2013-07-15 22:49:00,77.0,71.0,30.12,South,180,0.0,0.0,83,0.00,,,0.00,,2013-07-16 02:49:00,
2013-07-15 23:47:00,76.0,72.0,30.12,South,180,0.0,0.0,86,0.00,,,0.00,,2013-07-16 03:47:00,